星链-32086 (STARLINK-32086 )

导读 | 星芒AI

STARLINK-32086 是 SpaceX Starlink 低轨卫星互联网项目中的一颗卫星,属于第三代星链卫星(v1.5 或 v2 架构)。它于2023年发射,运行在约540公里高的近地轨道,旨在为全球用户提供高速、低延迟的互联网服务。该卫星采用先进通信技术,支持Ka/Ku频段,具备高带宽和高可靠性,是SpaceX构建全球宽带网络的重要组成部分。

基本信息
目录编号:
59703
目录名称:
STARLINK-32086
国际标识:
2024-086X
轨道中心:
EARTH
卫星名称:
星链-32086
卫星全名:
星链-32086 (STARLINK-32086 )
卫星状态:
在轨 (已飞行591 天)
发射日期:
2024-05-08 UTC
国别 :
美国 (US)
星等 :
--
轨道信息
数据来源 国际轨道数据
星历时间: 2025-12-20T00:58:53+0800
14小时前
查看轨道信息
半长轴: 6861.19km
偏心率: 0.0001684
轨道倾角: 43.002°
近地点辐角 262.442°
升交点赤经 151.273°
平近点角 97.625°
近地点: 481.897km
远地点: 484.209km
周期: 94.267分钟
每日圈数: 15.275788
详细信息
固有亮度:
5
最大亮度:
1.5
卫星平台:
Starlink v2.0 mini
覆盖范围:
全球
运营商:
太空探索技术公司
运营商所在国:
美国
制造商(研发单位):
太空探索技术公司
制造商所在国:
美国
使用方式:
暂无
卫星简介
星链(Starlink)计划是由太空探索技术公司(SpaceX)提出的一个巨型低轨卫星互联网星座项目,计划在2019年至2024年间在太空搭建由约1.2万颗卫星组成的“星链”网络,其中1584颗将部署在地球上空550千米处的近地轨道,并从2020年开始工作。该卫星仍在工作。
2D轨道图
3D轨道图
轨道高度分析图
轨道倾角分析图
轨道综合分析图
查看轨道综合分析图